Regional Weather Roundup
Issued by NWS

Home | Current Version | Previous Version | Text Only | Print | Product List | Glossary On
Versions: 1 2 3 4 5 6 7 8 9 10 11 12 13 14 15 16 17 18 19 20 21 22 23 24 25 26 27 28 29 30 31 32 33 34 35 36 37 38 39 40 41 42 43 44 45 46 47 48 49 50
000
ASUS43 KMKX 220210
RWRWI

WISCONSIN REGIONAL WEATHER ROUNDUP
NATIONAL WEATHER SERVICE MILWAUKEE/SULLIVAN WI
800 PM CST WED FEB 21 2018

NOTE: "FAIR" INDICATES FEW OR NO CLOUDS BELOW 12,000 FEET WITH NO
SIGNIFICANT WEATHER AND/OR OBSTRUCTIONS TO VISIBILITY.

WIZ001-002-006>008-014>016-023>028-220300-
NORTHWEST WISCONSIN

CITY           SKY/WX    TMP DP  RH WIND       PRES   REMARKS
SUPERIOR ARPT  FAIR      15   2  55 SW6       30.62R WCI   6
ASHLAND        FAIR       8   0  69 S8        30.62R WCI  -4
HAYWARD        FAIR      12   3  67 S5        30.61S WCI   4
SIREN          FAIR       9   1  68 S7        30.63R WCI  -2
CUMBERLAND     FAIR       5   0  78 S6        30.62R WCI  -6
RICE LAKE      FAIR       8   4  82 CALM      30.65R
CHETEK         FAIR       8   2  80 MISG      30.64S
LADYSMITH      FAIR       7   2  81 CALM      30.64S
EAU CLAIRE     FAIR       7   1  76 CALM      30.64F
MENOMONIE      FAIR      11   3  71 CALM      30.66S
NEW RICHMOND   FAIR      11   2  67 S6        30.64S WCI   1
OSCEOLA        FAIR      11   4  71 S9        30.67S WCI  -1
$$

WIZ003>005-009-010-017-018-220300-
NORTH CENTRAL WISCONSIN

CITY           SKY/WX    TMP DP  RH WIND       PRES   REMARKS
MANITOWISH WTR FAIR       1  -1  93 CALM      30.57S
ARBOR VITAE    FAIR       9   6  87 CALM      30.58R
WOODRUFF       FAIR       9   6  87 CALM      30.58R
RHINELANDER    FAIR       7   3  84 W3        30.59R
EAGLE RIVER    FAIR       5   1  82 CALM      30.57R
LAND O LAKES   FAIR       1  -2  87 CALM      30.58S
PHILLIPS       FAIR       5   2  86 CALM      30.59S
TOMAHAWK       FAIR       4   0  86 CALM      30.61R
MEDFORD        FAIR       7   1  74 S3        30.60F
MERRILL        FAIR      11   5  75 CALM      30.63R
$$

WIZ029-030-035-036-043>047-220300-
CENTRAL WISCONSIN

CITY           SKY/WX    TMP DP  RH WIND       PRES   REMARKS
WAUSAU         FAIR      12   3  67 CALM      30.63R
MOSINEE        PTCLDY    10   5  79 SW3       30.65R
MARSHFIELD     FAIR      12   5  73 CALM      30.62S
STEVENS POINT  FAIR      11   8  87 CALM      30.66S
WAUPACA        FAIR      20  11  67 CALM      30.68S
WAUTOMA        FAIR      18  14  84 N5        30.67F WCI  11
WISC RAPIDS    FAIR      15   9  76 CALM      30.66S
CAMP DOUGLAS   MOCLDY    16  14  93 CALM      30.65F
$$

WIZ011>013-019>022-031-037>040-048>050-220300-
NORTHEAST WISCONSIN

CITY           SKY/WX    TMP DP  RH WIND       PRES   REMARKS
ANTIGO         FAIR       9   6  84 CALM      30.61S
SHAWANO        FAIR      21  11  67 SW3       30.67S
OCONTO         FAIR      22  11  64 W7        30.68R WCI  13
STURGEON BAY   FAIR      21  12  68 SW5       30.67R WCI  15
GREEN BAY      FAIR      23  12  62 W6        30.67S WCI  16
MANITOWOC      FAIR      24  14  65 NW8       30.67R WCI  15
APPLETON       PTCLDY    19   7  58 NW7       30.65R WCI  10
CLINTONVILLE   FAIR      19   8  61 W6        30.68R WCI  11
OSHKOSH        FAIR      22  10  60 NW7       30.65F WCI  13
$$

WIZ032>034-041-042-053>061-220300-
SOUTHWEST WISCONSIN

CITY           SKY/WX    TMP DP  RH WIND       PRES   REMARKS
LA CROSSE      FAIR      20  15  81 CALM      30.67F
SPARTA         FAIR      17  15  93 CALM      30.67F
VIROQUA        FAIR      20  18  92 CALM      30.62F
BOSCOBEL       FAIR      23  15  71 CALM      30.66F
PRAIRIE DU CHI FAIR      24  10  55 CALM      30.65F
PLATTEVILLE    FAIR      24  18  75 NE6       30.63F WCI  17
$$

WIZ056-057-062-063-064-067-068-220300-
SOUTH CENTRAL WISCONSIN

CITY           SKY/WX    TMP DP  RH WIND       PRES   REMARKS
REEDSBURG      FAIR      22  12  66 NE3       30.64F
BARABOO/DELLS  FAIR      22  12  65 CALM      30.64F
LONE ROCK      FAIR      25  14  63 NE5       30.65F WCI  19
MINERAL POINT  FAIR      27  16  63 NE3       30.62S
MADISON        MOCLDY    23  12  62 N3        30.65F
MIDDLETON      FAIR      26  14  61 NE6       30.64F WCI  19
WATERTOWN      FAIR      24  14  66 N5        30.65S WCI  18
MONROE         FAIR      27  16  63 NE8       30.62S WCI  18
JANESVILLE     CLOUDY    27  16  63 NE6       30.64F WCI  20
$$

WIZ051-052-058>065-066-070>072-220300-
SOUTHEAST WISCONSIN

CITY           SKY/WX    TMP DP  RH WIND       PRES   REMARKS
MILWAUKEE      CLOUDY    27  15  61 N6        30.65S WCI  20
WAUKESHA       CLEAR     21  14  73 NW5       30.66S WCI  15
MILWAUKEE/TIMM CLEAR     25  12  58 N3        30.67R
RACINE         FAIR      26  18  71 NE6       30.67S WCI  19
BURLINGTON     FAIR      25  15  65 N6        30.65S WCI  18
KENOSHA        FAIR      27  18  69 N7        30.65S WCI  19
FOND DU LAC    FAIR      24  12  60 N6        30.66S WCI  17
SHEBOYGAN      FAIR      23  13  65 NW5       30.66S WCI  17
WEST BEND      FAIR      25  14  63 NW5       30.65S WCI  19
JUNEAU         FAIR      23  13  65 CALM      30.65F
$$

LSZ147-162-220300-
LAKE SUPERIOR

STATION/POSITION TIME  TEMP    WIND        PRES    WAVE
                       AIR SEA DIR/SP/G            HT/PER
                 (UTC) (F)     (DEG/KT/KT) (MB)    (FT/S)
DEVILS ISLAND    0000   23     230/ 10/ 14 1036.5R
SAXON HARBOR     0030   14     190/  4/  6 1035.9R
$$

LMZ867-665-643>646-220300-
LAKE MICHIGAN

STATION/POSITION TIME  TEMP    WIND        PRES    WAVE
                       AIR SEA DIR/SP/G            HT/PER
                 (UTC) (F)     (DEG/KT/KT) (MB)    (FT/S)
NORTHPORT PIER   0040   21                 1037.3R
KEWAUNEE LAKESHO 0142   24     300/  3/  4 1037.6R
SHEBOYGAN LAKESH 0000   26     300/  5/  6 1038.6R
PORT WASHINGTON  0030   27     310/  3/  5 1038.9R
MILWAUKEE LAKESH 0150   27     340/  6/  7   N/A
KENOSHA   LAKESH 0000   28      30/  6/  7 1036.9
$$

TC  - TEMPERATURE IN CELSIUS
VSB - VISIBILITY IN STATUTE MILES
WCI - WIND CHILL INDEX
HX  - HEAT INDEX




USA.gov is the U.S. government's official web portal to all federal, state and local government web resources and services.